Volver al catálogo

STARLINK-2001

ActivoComunicacionesVLEO
NORAD 47596·PAYLOAD·🇺🇸 United States

Lanzado Feb 4, 2021 desde Cape Canaveral Space Force Station

Loading…

Próximos Pases (próximas 24 horas)

TLE

ActualizadoSource: CelesTrak SupGP

Época: Sep 14, 2026, 22:10 UTC

1 47596C 21009BA  26257.92409722  .01073300  00000+0  92953-3 0  2571
2 47596  53.0241 162.5009 0004734 173.6580 244.8544 16.11962964    16

Sigue STARLINK-2001 en tiempo real con AllMySat

Download on the App Store